Vorticity
7 7 6 11 9 5 6 4 4 7 8 10 5 4 6 3 5 5 7 5 6 5 4 5 5 4 5 5 4 3 5 6
3 4 9 6 6 3 2 6 4 4 4 9 7 6 1 5 7 4 7 8 8 10 10 9 6 6 6 4 5 6 6 7
10 10 5 -5 -1 4 3 5 5 4 5 10 8 4 3 6 5 5 3 5 4 6 11 10 11 10 9 9 9 7 5 4
4 8 12 6 17 4 -2 -2 9 4 5 9 10 2 3 3 5 9 11 2 7 4 3 3 -0 5 7 6 7 11 14 11
3 5 8 6 -4 9 10 14 12 6 4 5 7 5 -1 6 4 7 14 2 5 4 4 7 3 -1 15 9 3 5 7 7
-4 -3 1 7 10 11 5 7 20 17 11 3 7 7 3 1 6 2 4 6 4 4 2 8 3 4 8 10 7 2 10 11
6 21 9 6 7 7 6 1 6 25 11 8 4 6 3 3 2 -4 -0 8 6 6 2 5 3 6 2 12 4 6 -2 -10
11 8 21 14 8 9 14 2 -0 4 24 11 7 9 3 2 5 4 2 9 9 5 6 3 4 12 23 2 14 14 13 15
11 19 12 17 19 8 7 8 5 5 2 25 14 7 4 3 3 7 6 11 13 11 9 1 2 3 8 16 12 11 9 7
24 15 17 15 14 18 12 14 9 5 6 17 16 11 7 -2 4 4 10 6 7 3 3 8 -0 11 15 10 9 7 6 4
10 14 14 17 24 8 32 17 3 7 8 15 15 8 15 1 -1 9 15 -0 10 14 2 3 4 9 12 9 8 7 6 5
12 5 14 15 22 17 7 19 10 3 12 14 16 9 14 15 11 11 12 6 9 8 3 4 4 14 10 9 6 5 6 4
7 10 16 -26 13 18 -4 24 6 3 14 8 9 7 8 8 10 6 6 2 6 2 9 1 8 8 11 6 5 7 3 6
12 10 18 35 -5 1 32 36 9 4 15 11 8 9 11 8 11 6 5 3 -2 8 12 3 16 9 7 6 -1 2 7 5
25 19 5 13 33 13 -7 23 17 9 9 5 12 21 18 14 9 5 10 5 4 13 7 14 8 5 6 8 7 7 8 4
12 5 10 14 13 10 29 21 16 18 8 5 10 12 11 3 7 7 4 7 9 8 12 14 -2 13 5 7 6 9 4 6
-19 18 35 20 11 10 13 18 17 17 8 13 15 10 11 11 9 10 10 6 8 12 13 0 13 2 7 6 9 3 6 9
12 7 8 12 12 10 27 26 15 2 19 14 11 11 9 7 5 7 8 8 14 15 6 7 3 10 5 9 3 4 9 12
3 27 4 -8 -8 -15 2 14 10 24 15 14 18 9 11 10 8 12 9 11 13 9 7 7 10 5 9 1 4 9 12 13
Height
3104 3107 3109 3110 3112 3113 3115 3118 3121 3124 3126 3129 3132 3134 3137 3139 3141 3142 3145 3147 3149 3151 3152 3154 3156 3157 3158 3159 3161 3162 3163 3163
3098 3101 3103 3104 3105 3106 3109 3112 3115 3117 3120 3123 3126 3130 3133 3133 3136 3138 3140 3143 3145 3147 3148 3150 3152 3153 3154 3155 3157 3158 3158 3159
3089 3093 3094 3093 3096 3098 3101 3106 3109 3113 3115 3118 3121 3124 3126 3129 3132 3134 3136 3138 3140 3142 3144 3145 3148 3149 3150 3150 3152 3153 3154 3154
3080 3083 3085 3083 3087 3090 3093 3097 3100 3105 3109 3111 3114 3116 3119 3122 3125 3128 3132 3134 3136 3138 3140 3142 3144 3145 3145 3146 3146 3147 3148 3148
3070 3073 3075 3073 3079 3082 3084 3088 3092 3096 3101 3103 3106 3110 3113 3117 3121 3124 3126 3129 3132 3134 3136 3138 3140 3140 3141 3141 3142 3141 3141 3141
3060 3062 3065 3067 3068 3073 3076 3079 3082 3086 3091 3095 3099 3104 3108 3110 3113 3117 3120 3125 3127 3129 3131 3132 3134 3134 3134 3134 3134 3135 3135 3134
3046 3050 3056 3058 3059 3062 3067 3070 3072 3076 3080 3087 3090 3097 3100 3102 3106 3111 3115 3119 3121 3124 3125 3126 3127 3128 3127 3127 3128 3129 3130 3130
3036 3038 3041 3046 3051 3046 3055 3060 3063 3067 3070 3077 3082 3089 3092 3096 3099 3105 3109 3112 3114 3117 3119 3120 3122 3122 3122 3123 3123 3124 3124 3125
3022 3026 3029 3033 3039 3035 3040 3049 3054 3058 3061 3067 3074 3080 3085 3087 3091 3098 3103 3104 3108 3109 3111 3114 3115 3117 3117 3117 3117 3118 3118 3119
3012 3016 3019 3022 3027 3027 3027 3038 3044 3048 3052 3057 3064 3071 3077 3076 3085 3091 3095 3097 3100 3102 3105 3109 3110 3111 3111 3111 3112 3112 3112 3113
3002 3006 3010 3012 3016 3019 3017 3028 3034 3040 3044 3049 3056 3062 3067 3068 3077 3084 3086 3089 3092 3097 3100 3103 3104 3104 3105 3105 3105 3106 3106 3107
2995 2999 3001 3003 3006 3013 3011 3016 3024 3029 3035 3041 3047 3053 3057 3060 3070 3075 3078 3082 3086 3089 3092 3095 3096 3097 3097 3098 3099 3100 3100 3100
2987 2991 2988 2994 2997 3000 3001 3006 3015 3020 3028 3034 3039 3044 3049 3054 3061 3065 3069 3074 3079 3082 3085 3087 3088 3089 3090 3091 3093 3094 3094 3092
2977 2978 2982 2985 2989 2991 2994 3000 3007 3014 3020 3025 3030 3035 3040 3046 3051 3056 3061 3066 3070 3074 3076 3078 3080 3082 3083 3085 3086 3086 3085 3085
2971 2974 2978 2981 2983 2985 2991 2995 3000 3006 3011 3016 3021 3025 3031 3036 3043 3049 3055 3058 3062 3065 3068 3070 3073 3074 3076 3077 3078 3078 3078 3078
2967 2970 2973 2976 2978 2980 2984 2989 2994 2998 3004 3008 3013 3018 3024 3028 3035 3040 3046 3050 3054 3057 3059 3062 3064 3067 3068 3070 3071 3071 3071 3070
2961 2964 2966 2968 2972 2976 2979 2983 2987 2991 2995 3000 3005 3011 3015 3021 3026 3031 3036 3040 3043 3048 3050 3053 3056 3059 3061 3063 3064 3064 3063 3062
2955 2960 2962 2965 2968 2970 2972 2976 2981 2983 2987 2992 2997 3002 3009 3013 3018 3022 3026 3031 3035 3039 3042 3045 3048 3052 3055 3057 3057 3056 3055 3054
2952 2952 2957 2958 2960 2964 2966 2969 2973 2975 2980 2984 2988 2993 2998 3004 3009 3014 3018 3022 3027 3030 3034 3037 3041 3045 3048 3049 3049 3048 3048 3047